TimeEST,TemperatureF,Dew PointF,Humidity,Sea Level PressureIn,VisibilityMPH,Wind Direction,Wind SpeedMPH,Gust SpeedMPH,PrecipitationIn,Events,Conditions,WindDirDegrees,DateUTC
12:56 AM,26.1,3.0,37,30.27,10.0,NW,3.5,-,N/A,,Partly Cloudy,310,2013-01-23 05:56:00
1:56 AM,26.1,12.9,58,30.28,10.0,NNE,10.4,-,N/A,,Clear,20,2013-01-23 06:56:00
2:56 AM,26.1,12.0,55,30.30,10.0,North,6.9,-,N/A,,Mostly Cloudy,10,2013-01-23 07:56:00
3:56 AM,25.0,12.0,58,30.31,10.0,North,11.5,-,N/A,,Mostly Cloudy,10,2013-01-23 08:56:00
4:56 AM,25.0,12.0,58,30.31,10.0,North,10.4,-,N/A,,Overcast,10,2013-01-23 09:56:00
5:56 AM,21.9,12.0,66,30.32,10.0,North,3.5,-,N/A,,Scattered Clouds,350,2013-01-23 10:56:00
6:56 AM,21.0,8.1,57,30.33,10.0,WNW,4.6,-,N/A,,Scattered Clouds,290,2013-01-23 11:56:00
7:56 AM,23.0,8.1,53,30.35,10.0,West,5.8,-,N/A,,Scattered Clouds,280,2013-01-23 12:56:00
8:56 AM,27.0,3.9,37,30.36,10.0,NW,10.4,-,N/A,,Scattered Clouds,320,2013-01-23 13:56:00
9:56 AM,28.0,1.9,33,30.38,10.0,NW,13.8,-,N/A,,Scattered Clouds,310,2013-01-23 14:56:00
10:56 AM,28.0,-0.0,30,30.36,10.0,NW,9.2,-,N/A,,Mostly Cloudy,320,2013-01-23 15:56:00
11:56 AM,28.9,-2.0,26,30.32,10.0,West,13.8,21.9,N/A,,Mostly Cloudy,280,2013-01-23 16:56:00
12:56 PM,30.9,1.9,29,30.29,10.0,WNW,8.1,-,N/A,,Mostly Cloudy,290,2013-01-23 17:56:00
1:56 PM,32.0,1.0,27,30.25,10.0,West,6.9,-,N/A,,Mostly Cloudy,280,2013-01-23 18:56:00
2:56 PM,33.1,1.0,26,30.24,10.0,West,10.4,18.4,N/A,,Scattered Clouds,280,2013-01-23 19:56:00
3:56 PM,32.0,-0.0,26,30.24,10.0,West,4.6,-,N/A,,Scattered Clouds,270,2013-01-23 20:56:00
4:56 PM,30.9,1.0,28,30.24,10.0,West,5.8,-,N/A,,Scattered Clouds,270,2013-01-23 21:56:00
5:56 PM,30.0,-0.9,27,30.24,10.0,SSW,4.6,-,N/A,,Scattered Clouds,200,2013-01-23 22:56:00
6:56 PM,30.9,3.0,31,30.22,10.0,South,3.5,-,N/A,,Mostly Cloudy,180,2013-01-23 23:56:00
7:56 PM,30.9,5.0,33,30.20,10.0,SSE,4.6,-,N/A,,Overcast,160,2013-01-24 00:56:00
8:56 PM,30.9,7.0,37,30.20,10.0,South,4.6,-,N/A,,Overcast,190,2013-01-24 01:56:00
9:56 PM,32.0,6.1,34,30.18,10.0,South,4.6,-,N/A,,Overcast,180,2013-01-24 02:56:00
10:56 PM,32.0,8.1,37,30.15,10.0,South,4.6,-,N/A,,Overcast,190,2013-01-24 03:56:00
11:56 PM,33.1,12.0,42,30.12,10.0,South,4.6,-,N/A,,Overcast,170,2013-01-24 04:56:00